Weather History for Blythe, CA

Change the Weather History Date:

Saturday, April 6, 2013

  Actual Average Record
Temperature  
Mean Temperature 74 °F -  
Max Temperature 91 °F 78 °F 102 °F (1989)
Min Temperature 59 °F 51 °F 44 °F (2006)
Cooling Degree Days 10    
Growing Degree Days 24 (Base 50)    
Moisture  
Dew Point 35 °F    
Average Humidity 27    
Maximum Humidity 55    
Minimum Humidity 10    
Precipitation  
Precipitation 0.00 in - - ()
Sea Level Pressure  
Sea Level Pressure 29.83 in    
Wind  
Wind Speed 6 mph (NW)    
Max Wind Speed 10 mph    
Max Gust Speed 17 mph    
Visibility 10 miles    
Events      
Averages and records for this station are not official NWS values.
T = Trace of Precipitation, MM = Missing Value Source: NWS Daily Summary

Daily Weather History Graph

Daily Weather History Graph

Search for Another Location

Airport:

Trip Planner

Search our weather history database for the weather conditions in past years. The results will help you decide how hot, cold, wet, or windy it might be!

Date:

Astronomy

Apr. 06, 2013 Rise Set
Actual Time 6:19 AM PDT 7:03 PM PDT
Civil Twilight 5:54 AM PDT 7:28 PM PDT
Nautical Twilight 5:24 AM PDT 7:58 PM PDT
Astronomical Twilight 4:54 AM PDT 8:28 PM PDT
Moon 3:55 AM PDT (4/6) 3:45 PM PDT (4/6)
Length of Visible Light 13h 34m
Length of Day
12h 44m
Waning Crescent, 14% of the Moon is Illuminated
Apr 6
Waning Crescent
Apr 10
New
Apr 18
First Quarter
Apr 25
Full
May 2
Last Quarter

Hourly Weather History & Observations

Time (PDT) Temp. Dew Point Humidity Pressure Visibility Wind Dir Wind Speed Gust Speed Precip Events Conditions
12:52 AM 68.0 °F 46.9 °F 47% 29.83 in 10.0 mi SSW 8.1 mph - N/A   Clear
1:52 AM 66.0 °F 44.1 °F 45% 29.83 in 10.0 mi North 8.1 mph - N/A   Clear
2:52 AM 62.1 °F 44.1 °F 52% 29.84 in 10.0 mi North 5.8 mph - N/A   Clear
3:52 AM 60.1 °F 44.1 °F 55% 29.85 in 10.0 mi NNE 4.6 mph - N/A   Clear
4:52 AM 59.0 °F 43.0 °F 55% 29.85 in 10.0 mi NNE 5.8 mph - N/A   Clear
5:52 AM 60.1 °F 39.9 °F 47% 29.86 in 10.0 mi Calm Calm - N/A   Clear
6:52 AM 61.0 °F 33.1 °F 35% 29.88 in 10.0 mi NNW 4.6 mph - N/A   Clear
7:52 AM 69.1 °F 33.1 °F 26% 29.91 in 10.0 mi NNW 9.2 mph - N/A   Clear
8:52 AM 73.0 °F 34.0 °F 24% 29.91 in 10.0 mi North 8.1 mph - N/A   Clear
9:52 AM 75.0 °F 33.1 °F 22% 29.92 in 10.0 mi West 4.6 mph - N/A   Clear
10:52 AM 77.0 °F 33.1 °F 20% 29.92 in 10.0 mi SSW 4.6 mph - N/A   Clear
11:52 AM 82.0 °F 33.1 °F 17% 29.90 in 10.0 mi SW 6.9 mph - N/A   Clear
12:52 PM 84.0 °F 30.0 °F 14% 29.88 in 10.0 mi South 5.8 mph - N/A   Clear
1:52 PM 86.0 °F 28.9 °F 13% 29.84 in 10.0 mi WNW 8.1 mph - N/A   Clear
2:52 PM 88.0 °F 28.9 °F 12% 29.81 in 10.0 mi WSW 10.4 mph 17.3 mph N/A   Clear
3:52 PM 89.1 °F 27.0 °F 11% 29.78 in 10.0 mi West 10.4 mph 16.1 mph N/A   Clear
4:52 PM 90.0 °F 27.0 °F 10% 29.76 in 10.0 mi Variable 4.6 mph - N/A   Clear
5:52 PM 89.1 °F 28.0 °F 11% 29.75 in 10.0 mi Calm Calm - N/A   Clear
6:52 PM 84.9 °F 37.0 °F 18% 29.76 in 10.0 mi SE 5.8 mph - N/A   Clear
7:52 PM 81.0 °F 37.0 °F 21% 29.76 in 10.0 mi Calm Calm - N/A   Clear
8:52 PM 77.0 °F 36.0 °F 23% 29.78 in 10.0 mi ENE 3.5 mph - N/A   Clear
9:52 PM 75.9 °F 35.1 °F 23% 29.79 in 10.0 mi Calm Calm - N/A   Clear
10:52 PM 73.0 °F 35.1 °F 25% 29.79 in 10.0 mi SSE 5.8 mph - N/A   Clear
11:52 PM 70.0 °F 33.1 °F 26% 29.79 in 10.0 mi NNE 5.8 mph - N/A   Clear